Overview Statistics Trail Chart Weather Telemetry Raw packets
 

This is the latest recevied weather packets stored in our database for station/object KH6HHG. If no packets are shown the sender has not sent any weather packets the latest 10 day(s).

<< 62 63 64 65 66 67 68 >>
Time Temp. Humidity Pressure Rain* Wind** Luminosity Snow
1777262348 22.78° C 74% 1010.7 hPa 0 mm - - -
1777262048 23.33° C 73% 1010.6 hPa 0 mm - - -
1777261748 23.33° C 73% 1010.5 hPa 0 mm - - -
1777261448 23.33° C 71% 1010.4 hPa 0 mm - - -
1777261148 23.33° C 71% 1010.2 hPa 0 mm - - -
1777260848 23.33° C 69% 1010.3 hPa 0 mm - - -
1777260548 23.33° C 71% 1010.2 hPa 0 mm - - -
1777260248 23.89° C 73% 1010.3 hPa 0 mm - - -
1777259948 23.89° C 74% 1010.2 hPa 0 mm - - -
1777259648 23.89° C 73% 1010.1 hPa 0 mm - - -
1777259348 23.89° C 74% 1010.1 hPa 0 mm - - -
1777259048 23.89° C 73% 1010.1 hPa 0 mm - - -
1777258748 23.89° C 74% 1010 hPa 0 mm - - -
1777258448 23.89° C 73% 1010 hPa 0 mm - - -
1777258148 24.44° C 72% 1010 hPa 0 mm - - -
1777257848 24.44° C 72% 1010 hPa 0 mm - - -
1777257548 24.44° C 74% 1009.8 hPa 0 mm - - -
1777257248 23.89° C 75% 1009.9 hPa 0 mm - - -
1777256948 23.89° C 74% 1009.9 hPa 0 mm - - -
1777256648 23.33° C 75% 1009.9 hPa 0 mm - - -
1777256347 23.33° C 75% 1009.9 hPa 0 mm - - -
1777256047 23.33° C 75% 1009.9 hPa 0 mm - - -
1777255747 23.33° C 75% 1009.8 hPa 0 mm - - -
1777255447 23.33° C 76% 1009.8 hPa 0 mm - - -
1777255147 23.33° C 76% 1009.9 hPa 0 mm - - -

* Rain latest hour (hover to see other rain measurements)
** Current wind speed in m/s (hover to see current wind gust speed)